Time,TemperatureF,DewpointF,PressureIn,WindDirection,WindDirectionDegrees,WindSpeedMPH,WindSpeedGustMPH,Humidity,HourlyPrecipIn,Conditions,Clouds,dailyrainin,SoftwareType,DateUTC
2013-02-02 00:01:00,14.5,5.9,29.09,ESE,107,0.0,0.0,68,0.00,,,0.00,VWS V14.01,2013-02-02 06:01:00,
2013-02-02 00:06:00,14.7,6.1,29.09,SE,127,0.0,0.0,68,0.00,,,0.00,VWS V14.01,2013-02-02 06:06:00,
2013-02-02 00:11:00,14.9,5.9,29.09,SE,129,0.0,0.0,67,0.00,,,0.00,VWS V14.01,2013-02-02 06:11:00,
2013-02-02 00:16:00,15.1,6.1,29.09,SE,128,0.0,0.0,67,0.00,,,0.00,VWS V14.01,2013-02-02 06:16:00,
2013-02-02 00:21:00,15.3,6.2,29.09,SE,128,0.0,0.0,67,0.00,,,0.00,VWS V14.01,2013-02-02 06:21:00,
2013-02-02 00:26:00,15.4,6.0,29.06,SE,128,0.0,0.0,66,0.00,,,0.00,VWS V14.01,2013-02-02 06:26:00,
2013-02-02 00:31:00,15.6,6.2,29.06,SE,128,0.0,0.0,66,0.00,,,0.00,VWS V14.01,2013-02-02 06:31:00,
2013-02-02 00:36:00,15.8,6.7,29.06,SE,128,0.0,0.0,67,0.00,,,0.00,VWS V14.01,2013-02-02 06:36:00,
2013-02-02 00:41:00,15.8,6.7,29.06,SE,128,0.0,0.0,67,0.00,,OVC032,0.00,VWS V14.01,2013-02-02 06:41:00,
2013-02-02 00:46:00,16.0,6.9,29.06,SE,128,0.0,0.0,67,0.00,,OVC032,0.00,VWS V14.01,2013-02-02 06:46:00,
2013-02-02 00:50:00,16.2,7.1,29.06,SE,128,0.0,0.0,67,0.00,,OVC032,0.00,VWS V14.01,2013-02-02 06:50:00,
2013-02-02 00:55:00,16.3,7.6,29.06,SE,128,0.0,0.0,68,0.00,,OVC032,0.00,VWS V14.01,2013-02-02 06:55:00,
2013-02-02 01:00:00,16.5,7.8,29.06,SE,128,0.0,0.0,68,0.00,,OVC032,0.00,VWS V14.01,2013-02-02 07:00:00,
2013-02-02 01:05:00,16.7,8.0,29.06,SE,128,0.0,0.0,68,0.00,,OVC032,0.00,VWS V14.01,2013-02-02 07:05:00,
2013-02-02 01:10:00,16.9,8.1,29.06,SE,128,0.0,0.0,68,0.00,,OVC032,0.00,VWS V14.01,2013-02-02 07:10:00,
2013-02-02 01:15:00,16.9,8.1,29.06,SE,128,0.0,0.0,68,0.00,,OVC032,0.00,VWS V14.01,2013-02-02 07:15:00,
2013-02-02 01:20:00,17.2,8.5,29.06,SE,128,0.0,0.0,68,0.00,,OVC032,0.00,VWS V14.01,2013-02-02 07:20:00,
2013-02-02 01:25:00,17.4,8.6,29.06,SE,129,0.0,0.0,68,0.00,,OVC032,0.00,VWS V14.01,2013-02-02 07:25:00,
2013-02-02 01:30:00,17.6,8.8,29.06,SE,128,0.0,0.0,68,0.00,,OVC032,0.00,VWS V14.01,2013-02-02 07:30:00,
2013-02-02 01:35:00,17.8,9.0,29.06,SE,129,0.0,0.0,68,0.00,,OVC032,0.00,VWS V14.01,2013-02-02 07:35:00,
2013-02-02 01:40:00,18.0,9.2,29.03,SE,129,0.0,0.0,68,0.00,,OVC030,0.00,VWS V14.01,2013-02-02 07:40:00,
2013-02-02 01:45:00,18.1,9.3,29.03,SE,129,0.0,0.0,68,0.00,,OVC030,0.00,VWS V14.01,2013-02-02 07:45:00,
2013-02-02 01:50:00,18.3,9.5,29.03,SE,129,0.0,0.0,68,0.00,,OVC028,0.00,VWS V14.01,2013-02-02 07:50:00,
2013-02-02 01:55:00,18.5,9.7,29.03,SE,129,0.0,0.0,68,0.00,,OVC028,0.00,VWS V14.01,2013-02-02 07:55:00,
2013-02-02 02:00:00,18.7,9.5,29.03,SE,128,0.0,0.0,67,0.00,,OVC028,0.00,VWS V14.01,2013-02-02 08:00:00,
2013-02-02 02:06:00,18.9,9.7,29.03,SE,129,0.0,0.0,67,0.00,,OVC028,0.00,VWS V14.01,2013-02-02 08:06:00,
2013-02-02 02:11:00,18.9,9.7,29.03,SE,128,0.0,0.0,67,0.00,,OVC028,0.00,VWS V14.01,2013-02-02 08:11:00,
2013-02-02 02:16:00,19.0,9.8,29.03,SE,129,0.0,0.0,67,0.00,,OVC028,0.00,VWS V14.01,2013-02-02 08:16:00,
2013-02-02 02:21:00,19.0,9.8,29.03,SE,129,0.0,0.0,67,0.00,,OVC028,0.00,VWS V14.01,2013-02-02 08:21:00,
2013-02-02 02:26:00,19.2,10.0,29.03,SE,128,0.0,0.0,67,0.00,,OVC028,0.00,VWS V14.01,2013-02-02 08:26:00,
2013-02-02 02:31:00,19.2,10.0,29.03,SE,129,0.0,0.0,67,0.00,,OVC028,0.00,VWS V14.01,2013-02-02 08:31:00,
2013-02-02 02:36:00,19.2,10.4,29.03,SE,128,0.0,0.0,68,0.00,,OVC028,0.00,VWS V14.01,2013-02-02 08:36:00,
2013-02-02 02:41:00,19.2,10.4,29.03,SE,128,0.0,0.0,68,0.00,,OVC028,0.00,VWS V14.01,2013-02-02 08:41:00,
2013-02-02 02:46:00,19.4,10.6,29.03,SE,128,0.0,0.0,68,0.00,,OVC028,0.00,VWS V14.01,2013-02-02 08:46:00,
2013-02-02 02:50:00,19.4,10.6,29.03,SE,128,0.0,0.0,68,0.00,,OVC026,0.00,VWS V14.01,2013-02-02 08:50:00,
2013-02-02 02:55:00,19.6,10.7,29.03,SE,128,0.0,0.0,68,0.00,,OVC026,0.00,VWS V14.01,2013-02-02 08:55:00,
2013-02-02 03:00:00,19.6,10.7,29.03,SE,128,0.0,0.0,68,0.00,,OVC026,0.00,VWS V14.01,2013-02-02 09:00:00,
2013-02-02 03:05:00,19.6,11.1,29.03,SE,128,0.0,0.0,69,0.00,,OVC026,0.00,VWS V14.01,2013-02-02 09:05:00,
2013-02-02 03:10:00,19.8,11.2,29.03,SE,128,0.0,0.0,69,0.00,,OVC026,0.00,VWS V14.01,2013-02-02 09:10:00,
2013-02-02 03:15:00,19.8,11.2,29.03,SE,128,0.0,0.0,69,0.00,,OVC026,0.00,VWS V14.01,2013-02-02 09:15:00,
2013-02-02 03:20:00,19.8,11.6,29.03,SE,128,0.0,0.0,70,0.00,,OVC026,0.00,VWS V14.01,2013-02-02 09:20:00,
2013-02-02 03:25:00,19.9,11.8,29.03,SE,128,0.0,0.0,70,0.00,,OVC026,0.00,VWS V14.01,2013-02-02 09:25:00,
2013-02-02 03:30:00,19.9,11.8,29.03,SE,128,0.0,0.0,70,0.00,,OVC026,0.00,VWS V14.01,2013-02-02 09:30:00,
2013-02-02 03:35:00,19.9,11.8,29.03,SE,128,0.0,0.0,70,0.00,,OVC026,0.00,VWS V14.01,2013-02-02 09:35:00,
2013-02-02 03:40:00,20.1,12.3,29.03,SE,128,0.0,0.0,71,0.00,,OVC024,0.00,VWS V14.01,2013-02-02 09:40:00,
2013-02-02 03:45:00,20.3,12.8,29.03,SE,128,0.0,0.0,72,0.00,,OVC024,0.00,VWS V14.01,2013-02-02 09:45:00,
2013-02-02 03:50:00,20.5,13.0,29.03,SE,128,0.0,0.0,72,0.00,,OVC022,0.00,VWS V14.01,2013-02-02 09:50:00,
2013-02-02 03:55:00,20.5,12.6,29.03,SE,128,0.0,0.0,71,0.00,,OVC022,0.00,VWS V14.01,2013-02-02 09:55:00,
2013-02-02 04:00:00,20.5,12.6,29.03,SE,128,0.0,0.0,71,0.00,,OVC022,0.00,VWS V14.01,2013-02-02 10:00:00,
2013-02-02 04:05:00,20.5,12.3,29.03,SE,128,0.0,0.0,70,0.00,,OVC022,0.00,VWS V14.01,2013-02-02 10:05:00,
2013-02-02 04:10:00,20.7,12.5,29.03,SE,129,0.0,0.0,70,0.00,,OVC022,0.00,VWS V14.01,2013-02-02 10:10:00,
2013-02-02 04:15:00,20.5,11.9,29.03,SE,129,0.0,0.0,69,0.00,,OVC022,0.00,VWS V14.01,2013-02-02 10:15:00,
2013-02-02 04:20:00,20.5,11.9,29.03,SE,129,0.0,0.0,69,0.00,,OVC022,0.00,VWS V14.01,2013-02-02 10:20:00,
2013-02-02 04:25:00,20.5,11.9,29.03,SE,129,0.0,0.0,69,0.00,,OVC022,0.00,VWS V14.01,2013-02-02 10:25:00,
2013-02-02 04:30:00,20.5,11.9,29.03,SE,145,0.0,0.0,69,0.00,,OVC022,0.00,VWS V14.01,2013-02-02 10:30:00,
2013-02-02 04:35:00,20.8,12.6,29.03,WSW,244,0.0,0.0,70,0.00,,OVC022,0.00,VWS V14.01,2013-02-02 10:35:00,
2013-02-02 04:40:00,20.8,12.6,29.03,WSW,249,0.0,0.0,70,0.00,,OVC022,0.00,VWS V14.01,2013-02-02 10:40:00,
2013-02-02 04:45:00,20.8,12.6,29.03,West,264,0.0,0.0,70,0.00,,OVC022,0.00,VWS V14.01,2013-02-02 10:45:00,
2013-02-02 04:50:00,20.8,12.6,29.03,West,269,4.1,4.1,70,0.00,,OVC022,0.00,VWS V14.01,2013-02-02 10:50:00,
2013-02-02 04:55:00,21.0,12.8,29.03,WSW,257,5.8,5.8,70,0.00,,OVC022,0.00,VWS V14.01,2013-02-02 10:55:00,
2013-02-02 05:00:00,21.0,12.5,29.03,WNW,284,0.0,0.0,69,0.00,,OVC022,0.00,VWS V14.01,2013-02-02 11:00:00,
2013-02-02 05:05:00,20.8,11.9,29.03,West,268,8.1,8.1,68,0.00,,OVC022,0.00,VWS V14.01,2013-02-02 11:05:00,
2013-02-02 05:10:00,20.7,11.0,29.03,WNW,282,0.0,0.0,66,0.00,,OVC022,0.00,VWS V14.01,2013-02-02 11:10:00,
2013-02-02 05:15:00,20.5,10.8,29.03,West,270,15.1,15.1,66,0.00,,OVC022,0.00,VWS V14.01,2013-02-02 11:15:00,
2013-02-02 05:20:00,19.9,9.9,29.03,WNW,291,10.2,10.2,65,0.00,,OVC022,0.00,VWS V14.01,2013-02-02 11:20:00,
2013-02-02 05:25:00,19.6,10.0,29.06,WNW,292,7.6,7.6,66,0.00,,OVC022,0.00,VWS V14.01,2013-02-02 11:25:00,
2013-02-02 05:30:00,19.2,9.6,29.06,WNW,296,3.5,4.0,66,0.00,,OVC022,0.00,VWS V14.01,2013-02-02 11:30:00,
2013-02-02 05:35:00,18.9,9.3,29.06,West,279,10.8,10.8,66,0.00,,OVC022,0.00,VWS V14.01,2013-02-02 11:35:00,
2013-02-02 05:40:00,18.5,8.9,29.06,West,279,3.5,6.9,66,0.00,,OVC022,0.00,VWS V14.01,2013-02-02 11:40:00,
2013-02-02 05:45:00,18.3,8.8,29.06,WNW,290,0.0,4.5,66,0.00,,OVC022,0.00,VWS V14.01,2013-02-02 11:45:00,
2013-02-02 05:50:00,18.0,8.4,29.06,NW,308,6.4,6.9,66,0.00,,OVC022,0.00,VWS V14.01,2013-02-02 11:50:00,
2013-02-02 05:55:00,17.6,7.7,29.06,WNW,296,13.1,13.1,65,0.00,,OVC022,0.00,VWS V14.01,2013-02-02 11:55:00,
2013-02-02 06:00:00,17.2,7.4,29.06,WNW,294,13.1,13.1,65,0.00,,OVC022,0.00,VWS V14.01,2013-02-02 12:00:00,
2013-02-02 06:05:00,16.9,7.0,29.06,WNW,297,9.6,10.1,65,0.00,,OVC022,0.00,VWS V14.01,2013-02-02 12:05:00,
2013-02-02 06:10:00,16.9,7.0,29.06,WNW,282,0.0,3.1,65,0.00,,OVC022,0.00,VWS V14.01,2013-02-02 12:10:00,
2013-02-02 06:15:00,16.7,7.2,29.06,WNW,294,0.0,3.1,66,0.00,,OVC022,0.00,VWS V14.01,2013-02-02 12:15:00,
2013-02-02 06:20:00,16.7,7.2,29.06,West,277,12.5,12.5,66,0.00,,OVC022,0.00,VWS V14.01,2013-02-02 12:20:00,
2013-02-02 06:25:00,16.5,7.1,29.09,WNW,293,3.5,3.5,66,0.00,,OVC022,0.00,VWS V14.01,2013-02-02 12:25:00,
2013-02-02 06:30:00,16.3,6.9,29.09,WNW,286,0.0,0.0,66,0.00,,OVC022,0.00,VWS V14.01,2013-02-02 12:30:00,
2013-02-02 06:35:00,16.2,6.7,29.09,WNW,299,4.1,4.1,66,0.00,,OVC022,0.00,VWS V14.01,2013-02-02 12:35:00,
2013-02-02 06:40:00,16.0,6.5,29.09,NW,306,4.7,4.7,66,0.00,,OVC026,0.00,VWS V14.01,2013-02-02 12:40:00,
2013-02-02 06:45:00,15.8,6.4,29.09,WNW,297,4.1,4.1,66,0.00,,OVC026,0.00,VWS V14.01,2013-02-02 12:45:00,
2013-02-02 06:50:00,15.4,5.7,29.09,WNW,290,0.0,6.9,65,0.00,,OVC021,0.00,VWS V14.01,2013-02-02 12:50:00,
2013-02-02 06:55:00,15.3,5.5,29.09,WNW,297,12.5,12.5,65,0.00,,OVC021,0.00,VWS V14.01,2013-02-02 12:55:00,
2013-02-02 07:00:00,15.1,5.7,29.09,NW,321,7.0,7.0,66,0.00,,OVC021,0.00,VWS V14.01,2013-02-02 13:00:00,
2013-02-02 07:05:00,15.1,5.7,29.09,West,278,0.0,0.0,66,0.00,,OVC021,0.00,VWS V14.01,2013-02-02 13:05:00,
2013-02-02 07:10:00,14.9,5.9,29.12,WNW,282,8.1,8.1,67,0.00,,OVC021,0.00,VWS V14.01,2013-02-02 13:10:00,
2013-02-02 07:15:00,14.9,5.9,29.12,West,276,0.0,2.7,67,0.00,,OVC021,0.00,VWS V14.01,2013-02-02 13:15:00,
2013-02-02 07:20:00,14.9,5.9,29.12,NW,326,0.0,3.1,67,0.00,,OVC021,0.00,VWS V14.01,2013-02-02 13:20:00,
2013-02-02 07:25:00,14.7,5.7,29.12,NW,312,4.1,4.1,67,0.00,,OVC021,0.00,VWS V14.01,2013-02-02 13:25:00,
2013-02-02 07:30:00,14.7,5.3,29.12,WNW,303,7.0,7.0,66,0.00,,OVC021,0.00,VWS V14.01,2013-02-02 13:30:00,
2013-02-02 07:35:00,14.7,5.3,29.12,NW,309,0.0,4.9,66,0.00,,OVC021,0.00,VWS V14.01,2013-02-02 13:35:00,
2013-02-02 07:40:00,14.5,5.2,29.12,WNW,298,0.0,0.0,66,0.00,,OVC021,0.00,VWS V14.01,2013-02-02 13:40:00,
2013-02-02 07:45:00,14.4,4.6,29.12,WNW,299,8.1,8.1,65,0.00,,OVC021,0.00,VWS V14.01,2013-02-02 13:45:00,
2013-02-02 07:50:00,14.4,4.6,29.12,WNW,290,7.6,7.6,65,0.00,,OVC021,0.00,VWS V14.01,2013-02-02 13:50:00,
2013-02-02 07:55:00,14.4,4.6,29.12,NW,315,0.0,0.0,65,0.00,,OVC021,0.00,VWS V14.01,2013-02-02 13:55:00,
2013-02-02 08:00:00,14.4,4.6,29.12,WNW,299,0.0,0.0,65,0.00,,OVC021,0.00,VWS V14.01,2013-02-02 14:00:00,
2013-02-02 08:05:00,14.2,4.5,29.12,WNW,288,5.2,5.2,65,0.00,,OVC021,0.00,VWS V14.01,2013-02-02 14:05:00,
2013-02-02 08:10:00,14.2,4.5,29.15,West,279,5.2,5.2,65,0.00,,OVC021,0.00,VWS V14.01,2013-02-02 14:10:00,
2013-02-02 08:15:00,14.2,4.5,29.15,NW,307,9.0,9.0,65,0.00,,OVC021,0.00,VWS V14.01,2013-02-02 14:15:00,
2013-02-02 08:20:00,14.2,4.5,29.15,NW,307,5.2,5.2,65,0.00,,OVC021,0.00,VWS V14.01,2013-02-02 14:20:00,
2013-02-02 08:25:00,14.0,3.9,29.15,NW,321,5.2,5.2,64,0.00,,OVC021,0.00,VWS V14.01,2013-02-02 14:25:00,
2013-02-02 08:30:00,14.0,3.9,29.15,WNW,290,7.0,7.0,64,0.00,,OVC021,0.00,VWS V14.01,2013-02-02 14:30:00,
2013-02-02 08:35:00,14.0,3.5,29.15,WNW,301,0.0,0.0,62,0.00,,OVC021,0.00,VWS V14.01,2013-02-02 14:35:00,
2013-02-02 08:40:00,14.0,3.5,29.15,NNW,327,0.0,0.0,62,0.00,,OVC021,0.00,VWS V14.01,2013-02-02 14:40:00,
2013-02-02 08:45:00,13.8,3.0,29.15,NW,324,0.0,0.0,61,0.00,,OVC021,0.00,VWS V14.01,2013-02-02 14:45:00,
2013-02-02 08:50:00,14.0,2.8,29.15,NW,310,9.6,9.6,60,0.00,,OVC021,0.00,VWS V14.01,2013-02-02 14:50:00,
2013-02-02 08:55:00,14.0,2.8,29.15,NW,321,5.8,5.8,60,0.00,,OVC021,0.00,VWS V14.01,2013-02-02 14:55:00,
2013-02-02 09:00:00,14.0,2.4,29.15,NW,310,6.4,6.4,59,0.00,,OVC021,0.00,VWS V14.01,2013-02-02 15:00:00,
2013-02-02 09:05:00,13.8,2.2,29.15,WNW,296,4.1,4.1,59,0.00,,OVC021,0.00,VWS V14.01,2013-02-02 15:05:00,
2013-02-02 09:10:00,14.0,2.0,29.15,NW,312,7.6,7.6,58,0.00,,OVC021,0.00,VWS V14.01,2013-02-02 15:10:00,
2013-02-02 09:15:00,14.2,2.1,29.15,WNW,299,0.0,4.9,58,0.00,,OVC021,0.00,VWS V14.01,2013-02-02 15:15:00,
2013-02-02 09:20:00,14.2,2.1,29.15,NW,313,5.2,5.2,58,0.00,,OVC021,0.00,VWS V14.01,2013-02-02 15:20:00,
2013-02-02 09:25:00,14.2,1.7,29.15,WNW,295,3.5,3.5,57,0.00,,OVC021,0.00,VWS V14.01,2013-02-02 15:25:00,
2013-02-02 09:30:00,14.4,1.9,29.15,NW,325,5.8,5.8,57,0.00,,OVC021,0.00,VWS V14.01,2013-02-02 15:30:00,
2013-02-02 09:35:00,14.5,2.0,29.15,NW,325,0.0,0.0,57,0.00,,OVC021,0.00,VWS V14.01,2013-02-02 15:35:00,
2013-02-02 09:40:00,14.4,1.5,29.15,NNW,347,5.2,5.2,56,0.00,,OVC021,0.00,VWS V14.01,2013-02-02 15:40:00,
2013-02-02 09:45:00,14.2,0.9,29.15,North,1,7.0,7.0,55,0.00,,OVC021,0.00,VWS V14.01,2013-02-02 15:45:00,
2013-02-02 09:50:00,14.0,0.7,29.15,NNW,347,0.0,0.0,55,0.00,,BKN027,0.00,VWS V14.01,2013-02-02 15:50:00,
2013-02-02 09:55:00,14.0,0.7,29.15,North,0,4.7,4.7,55,0.00,,BKN027,0.00,VWS V14.01,2013-02-02 15:55:00,
2013-02-02 10:00:00,14.0,1.1,29.15,North,0,4.7,4.7,56,0.00,,BKN027,0.00,VWS V14.01,2013-02-02 16:00:00,
2013-02-02 10:05:00,14.2,1.3,29.15,NNW,345,0.0,0.0,56,0.00,,BKN027,0.00,VWS V14.01,2013-02-02 16:05:00,
2013-02-02 10:10:00,14.0,0.7,29.18,NW,322,0.0,0.0,55,0.00,,BKN027,0.00,VWS V14.01,2013-02-02 16:10:00,
2013-02-02 10:15:00,14.2,0.9,29.18,NNE,12,6.4,6.4,55,0.00,,BKN027,0.00,VWS V14.01,2013-02-02 16:15:00,
2013-02-02 10:20:00,14.5,1.2,29.18,North,0,0.0,0.0,55,0.00,,BKN027,0.00,VWS V14.01,2013-02-02 16:20:00,
2013-02-02 10:25:00,14.4,0.6,29.18,NNE,18,0.0,0.0,54,0.00,,BKN027,0.00,VWS V14.01,2013-02-02 16:25:00,
2013-02-02 10:30:00,14.7,0.9,29.18,NW,321,0.0,0.0,54,0.00,,BKN027,0.00,VWS V14.01,2013-02-02 16:30:00,
2013-02-02 10:35:00,14.7,1.4,29.18,North,0,4.7,4.7,55,0.00,,BKN027,0.00,VWS V14.01,2013-02-02 16:35:00,
2013-02-02 10:40:00,14.9,1.1,29.18,NW,325,0.0,0.0,54,0.00,,BKN027,0.00,VWS V14.01,2013-02-02 16:40:00,
2013-02-02 10:45:00,14.9,0.7,29.18,NW,312,0.0,0.0,52,0.00,,BKN027,0.00,VWS V14.01,2013-02-02 16:45:00,
2013-02-02 10:50:00,15.4,0.7,29.18,NNW,347,0.0,0.0,51,0.00,,BKN027,0.00,VWS V14.01,2013-02-02 16:50:00,
2013-02-02 10:55:00,15.8,1.1,29.18,North,3,7.6,7.6,51,0.00,,BKN027,0.00,VWS V14.01,2013-02-02 16:55:00,
2013-02-02 11:00:00,15.6,0.4,29.18,NW,321,0.0,0.0,50,0.00,,BKN027,0.00,VWS V14.01,2013-02-02 17:00:00,
2013-02-02 11:05:00,15.6,0.0,29.18,NW,310,4.1,4.1,49,0.00,,BKN027,0.00,VWS V14.01,2013-02-02 17:05:00,
2013-02-02 11:10:00,15.8,0.1,29.18,North,0,0.0,0.0,49,0.00,,BKN027,0.00,VWS V14.01,2013-02-02 17:10:00,
2013-02-02 11:15:00,15.6,-0.5,29.18,SSW,201,0.0,0.0,48,0.00,,BKN027,0.00,VWS V14.01,2013-02-02 17:15:00,
2013-02-02 11:20:00,15.4,-1.2,29.18,NW,308,3.5,3.5,47,0.00,,BKN027,0.00,VWS V14.01,2013-02-02 17:20:00,
2013-02-02 11:25:00,15.3,-0.9,29.18,NNW,346,0.0,0.0,48,0.00,,BKN027,0.00,VWS V14.01,2013-02-02 17:25:00,
2013-02-02 11:30:00,15.6,-0.5,29.18,North,351,0.0,0.0,48,0.00,,BKN027,0.00,VWS V14.01,2013-02-02 17:30:00,
2013-02-02 11:35:00,16.0,-0.2,29.18,NW,310,0.0,0.0,48,0.00,,BKN027,0.00,VWS V14.01,2013-02-02 17:35:00,
2013-02-02 11:40:00,16.3,-0.3,29.18,NW,320,0.0,0.0,47,0.00,,BKN027,0.00,VWS V14.01,2013-02-02 17:40:00,
2013-02-02 11:45:00,16.7,-0.5,29.18,NW,324,0.0,0.0,46,0.00,,BKN027,0.00,VWS V14.01,2013-02-02 17:45:00,
2013-02-02 11:50:00,17.4,0.1,29.18,NW,322,0.0,0.0,46,0.00,,BKN027,0.00,VWS V14.01,2013-02-02 17:50:00,
2013-02-02 11:55:00,17.6,-0.2,29.18,NNW,327,0.0,0.0,45,0.00,,BKN027,0.00,VWS V14.01,2013-02-02 17:55:00,
2013-02-02 12:00:00,18.0,-0.4,29.18,West,278,0.0,0.0,44,0.00,,BKN027,0.00,VWS V14.01,2013-02-02 18:00:00,
2013-02-02 12:05:00,17.8,-0.6,29.18,WNW,283,0.0,3.1,44,0.00,,BKN027,0.00,VWS V14.01,2013-02-02 18:05:00,
2013-02-02 12:10:00,17.8,-0.6,29.18,WNW,286,0.0,0.0,44,0.00,,BKN027,0.00,VWS V14.01,2013-02-02 18:10:00,
2013-02-02 12:15:00,18.3,-0.1,29.18,WNW,284,0.0,0.0,44,0.00,,BKN027,0.00,VWS V14.01,2013-02-02 18:15:00,
2013-02-02 12:20:00,18.5,0.1,29.18,WNW,286,0.0,0.0,44,0.00,,BKN027,0.00,VWS V14.01,2013-02-02 18:20:00,
2013-02-02 12:25:00,18.9,0.4,29.18,WNW,284,0.0,0.0,44,0.00,,BKN027,0.00,VWS V14.01,2013-02-02 18:25:00,
2013-02-02 12:30:00,18.5,-0.4,29.18,West,276,0.0,0.0,43,0.00,,BKN027,0.00,VWS V14.01,2013-02-02 18:30:00,
2013-02-02 12:35:00,18.0,-0.4,29.18,West,280,0.0,0.0,44,0.00,,BKN027,0.00,VWS V14.01,2013-02-02 18:35:00,
2013-02-02 12:40:00,18.0,0.1,29.18,West,277,0.0,0.0,45,0.00,,OVC027,0.00,VWS V14.01,2013-02-02 18:40:00,
2013-02-02 12:45:00,18.3,1.0,29.18,West,277,0.0,0.0,46,0.00,,OVC027,0.00,VWS V14.01,2013-02-02 18:45:00,
2013-02-02 12:50:00,18.5,0.6,29.18,West,279,0.0,0.0,45,0.00,,OVC025,0.00,VWS V14.01,2013-02-02 18:50:00,
2013-02-02 12:55:00,18.5,0.6,29.15,West,277,0.0,0.0,45,0.00,,OVC025,0.00,VWS V14.01,2013-02-02 18:55:00,
2013-02-02 13:00:00,18.3,0.4,29.15,West,278,0.0,0.0,45,0.00,,OVC025,0.00,VWS V14.01,2013-02-02 19:00:00,
2013-02-02 13:05:00,18.3,0.4,29.15,West,281,0.0,0.0,45,0.00,,OVC025,0.00,VWS V14.01,2013-02-02 19:05:00,
2013-02-02 13:10:00,18.3,0.4,29.15,West,280,0.0,0.0,45,0.00,,OVC025,0.00,VWS V14.01,2013-02-02 19:10:00,
2013-02-02 13:15:00,18.3,-0.1,29.15,West,279,0.0,0.0,44,0.00,,OVC025,0.00,VWS V14.01,2013-02-02 19:15:00,
2013-02-02 13:20:00,18.3,0.4,29.15,West,279,0.0,0.0,45,0.00,,OVC025,0.00,VWS V14.01,2013-02-02 19:20:00,
2013-02-02 13:25:00,18.1,-0.2,29.15,WSW,257,0.0,0.0,44,0.00,,OVC025,0.00,VWS V14.01,2013-02-02 19:25:00,
2013-02-02 13:30:00,17.8,0.0,29.15,West,280,0.0,0.0,45,0.00,,OVC025,0.00,VWS V14.01,2013-02-02 19:30:00,
2013-02-02 13:35:00,17.6,-0.2,29.15,West,268,0.0,0.0,45,0.00,,OVC025,0.00,VWS V14.01,2013-02-02 19:35:00,
2013-02-02 13:40:00,18.0,0.6,29.18,West,274,0.0,0.0,46,0.00,,BKN021,0.00,VWS V14.01,2013-02-02 19:40:00,
2013-02-02 13:45:00,18.1,0.8,29.18,WNW,286,5.2,5.2,46,0.00,,BKN021,0.00,VWS V14.01,2013-02-02 19:45:00,
2013-02-02 13:50:00,18.1,0.3,29.18,West,280,0.0,0.0,45,0.00,,BKN021,0.00,VWS V14.01,2013-02-02 19:50:00,
2013-02-02 13:55:00,18.1,0.3,29.18,WNW,296,0.0,0.0,45,0.00,,BKN021,0.00,VWS V14.01,2013-02-02 19:55:00,
2013-02-02 14:00:00,18.3,0.4,29.18,WSW,256,0.0,0.0,45,0.00,,BKN021,0.00,VWS V14.01,2013-02-02 20:00:00,
2013-02-02 14:05:00,18.1,-0.2,29.18,West,272,0.0,0.0,44,0.00,,BKN021,0.00,VWS V14.01,2013-02-02 20:05:00,
2013-02-02 14:10:00,18.0,-0.4,29.18,WNW,284,0.0,0.0,44,0.00,,BKN021,0.00,VWS V14.01,2013-02-02 20:10:00,
2013-02-02 14:15:00,17.8,-0.6,29.18,West,280,0.0,0.0,44,0.00,,BKN021,0.00,VWS V14.01,2013-02-02 20:15:00,
2013-02-02 14:20:00,17.4,-0.4,29.18,WNW,289,0.0,0.0,45,0.00,,BKN021,0.00,VWS V14.01,2013-02-02 20:20:00,
2013-02-02 14:25:00,17.6,-0.7,29.15,WSW,258,0.0,2.7,44,0.00,,BKN021,0.00,VWS V14.01,2013-02-02 20:25:00,
2013-02-02 14:30:00,17.8,0.0,29.15,West,259,0.0,0.0,45,0.00,,BKN021,0.00,VWS V14.01,2013-02-02 20:30:00,
2013-02-02 14:35:00,17.4,-0.4,29.15,West,263,0.0,0.0,45,0.00,,BKN021,0.00,VWS V14.01,2013-02-02 20:35:00,
2013-02-02 14:40:00,17.4,0.1,29.15,West,273,3.5,3.5,46,0.00,,BKN021,0.00,VWS V14.01,2013-02-02 20:40:00,
2013-02-02 14:45:00,17.6,0.3,29.15,West,270,0.0,0.0,46,0.00,,SCT030,0.00,VWS V14.01,2013-02-02 20:45:00,
2013-02-02 14:50:00,17.4,-0.4,29.15,West,272,0.0,0.0,45,0.00,,SCT030,0.00,VWS V14.01,2013-02-02 20:50:00,
2013-02-02 14:55:00,17.1,-1.2,29.15,WSW,249,0.0,0.0,44,0.00,,SCT030,0.00,VWS V14.01,2013-02-02 20:55:00,
2013-02-02 15:00:00,16.3,-1.4,29.15,WSW,250,0.0,0.0,45,0.00,,SCT030,0.00,VWS V14.01,2013-02-02 21:00:00,
2013-02-02 15:05:00,16.3,-1.4,29.15,WSW,256,0.0,0.0,45,0.00,,SCT030,0.00,VWS V14.01,2013-02-02 21:05:00,
2013-02-02 15:10:00,15.3,-1.8,29.15,SW,233,0.0,0.0,46,0.00,,SCT030,0.00,VWS V14.01,2013-02-02 21:10:00,
2013-02-02 15:15:00,14.7,0.1,29.15,West,260,0.0,0.0,51,0.00,,SCT030,0.00,VWS V14.01,2013-02-02 21:15:00,
2013-02-02 15:20:00,14.4,0.6,29.15,SSW,197,0.0,0.0,54,0.00,,SCT030,0.00,VWS V14.01,2013-02-02 21:20:00,
2013-02-02 15:25:00,14.2,0.9,29.15,SSW,213,4.1,4.1,55,0.00,,SCT030,0.00,VWS V14.01,2013-02-02 21:25:00,
2013-02-02 15:30:00,14.2,1.3,29.15,SW,220,3.5,3.5,56,0.00,,SCT030,0.00,VWS V14.01,2013-02-02 21:30:00,
2013-02-02 15:35:00,14.0,1.1,29.15,SSW,192,0.0,0.0,56,0.00,,SCT030,0.00,VWS V14.01,2013-02-02 21:35:00,
2013-02-02 15:40:00,14.4,1.5,29.15,SW,236,0.0,0.0,56,0.00,,SCT030,0.00,VWS V14.01,2013-02-02 21:40:00,
2013-02-02 15:45:00,14.4,1.0,29.15,SW,229,0.0,0.0,55,0.00,,SCT030,0.00,VWS V14.01,2013-02-02 21:45:00,
2013-02-02 15:50:00,14.4,1.0,29.15,SW,223,0.0,0.0,55,0.00,,SCT030,0.00,VWS V14.01,2013-02-02 21:50:00,
2013-02-02 15:55:00,14.4,0.6,29.15,SW,223,7.6,7.6,54,0.00,,SCT030,0.00,VWS V14.01,2013-02-02 21:55:00,
2013-02-02 16:00:00,14.2,0.4,29.15,SW,235,8.7,8.7,54,0.00,,SCT030,0.00,VWS V14.01,2013-02-02 22:00:00,
2013-02-02 16:05:00,14.2,0.4,29.15,SW,235,0.0,0.0,54,0.00,,SCT030,0.00,VWS V14.01,2013-02-02 22:05:00,
2013-02-02 16:10:00,14.2,0.4,29.15,SW,221,0.0,0.0,54,0.00,,SCT030,0.00,VWS V14.01,2013-02-02 22:10:00,
2013-02-02 16:15:00,14.2,0.4,29.15,SW,234,0.0,0.0,54,0.00,,,0.00,VWS V14.01,2013-02-02 22:15:00,
2013-02-02 16:20:00,13.6,-0.5,29.15,SSW,212,0.0,0.0,52,0.00,,,0.00,VWS V14.01,2013-02-02 22:20:00,
2013-02-02 16:25:00,14.2,0.0,29.15,SSW,213,0.0,0.0,52,0.00,,,0.00,VWS V14.01,2013-02-02 22:25:00,
2013-02-02 16:30:00,14.5,0.3,29.15,SW,217,0.0,0.0,52,0.00,,,0.00,VWS V14.01,2013-02-02 22:30:00,
2013-02-02 16:35:00,14.7,0.1,29.15,SSW,213,0.0,0.0,51,0.00,,,0.00,VWS V14.01,2013-02-02 22:35:00,
2013-02-02 16:40:00,14.7,0.1,29.15,SW,218,0.0,0.0,51,0.00,,,0.00,VWS V14.01,2013-02-02 22:40:00,
2013-02-02 16:45:00,14.4,-0.3,29.15,SW,217,0.0,0.0,51,0.00,,CLR,0.00,VWS V14.01,2013-02-02 22:45:00,
2013-02-02 16:50:00,14.2,-0.4,29.15,SW,219,0.0,3.1,51,0.00,,CLR,0.00,VWS V14.01,2013-02-02 22:50:00,
2013-02-02 16:55:00,13.6,-0.9,29.15,SW,223,0.0,0.0,51,0.00,,CLR,0.00,VWS V14.01,2013-02-02 22:55:00,
2013-02-02 17:00:00,13.3,-1.3,29.15,SW,226,0.0,0.0,51,0.00,,CLR,0.00,VWS V14.01,2013-02-02 23:00:00,
2013-02-02 17:05:00,12.9,-1.6,29.15,SW,226,0.0,0.0,51,0.00,,CLR,0.00,VWS V14.01,2013-02-02 23:05:00,
2013-02-02 17:10:00,12.7,-1.8,29.15,SW,226,0.0,0.0,51,0.00,,CLR,0.00,VWS V14.01,2013-02-02 23:10:00,
2013-02-02 17:15:00,12.6,-2.0,29.15,SW,225,0.0,0.0,51,0.00,,CLR,0.00,VWS V14.01,2013-02-02 23:15:00,
2013-02-02 17:20:00,12.4,-2.1,29.15,SW,226,0.0,0.0,51,0.00,,CLR,0.00,VWS V14.01,2013-02-02 23:20:00,
2013-02-02 17:25:00,12.0,-2.5,29.15,SW,226,0.0,0.0,51,0.00,,CLR,0.00,VWS V14.01,2013-02-02 23:25:00,
2013-02-02 17:30:00,11.8,-2.6,29.15,SW,226,0.0,0.0,51,0.00,,CLR,0.00,VWS V14.01,2013-02-02 23:30:00,
2013-02-02 17:35:00,11.8,-2.6,29.15,SW,226,0.0,0.0,51,0.00,,CLR,0.00,VWS V14.01,2013-02-02 23:35:00,
2013-02-02 17:40:00,11.7,-2.8,29.12,SW,226,0.0,0.0,51,0.00,,CLR,0.00,VWS V14.01,2013-02-02 23:40:00,
2013-02-02 17:45:00,11.5,-3.0,29.12,SW,226,0.0,0.0,51,0.00,,CLR,0.00,VWS V14.01,2013-02-02 23:45:00,
2013-02-02 17:50:00,11.1,-3.3,29.12,SW,226,0.0,0.0,51,0.00,,CLR,0.00,VWS V14.01,2013-02-02 23:50:00,
2013-02-02 17:55:00,10.9,-3.5,29.15,SW,226,0.0,0.0,51,0.00,,CLR,0.00,VWS V14.01,2013-02-02 23:55:00,
2013-02-02 18:00:00,10.8,-3.6,29.15,SW,226,0.0,0.0,51,0.00,,CLR,0.00,VWS V14.01,2013-02-03 00:00:00,
2013-02-02 18:05:00,10.8,-3.6,29.15,SW,226,0.0,0.0,51,0.00,,CLR,0.00,VWS V14.01,2013-02-03 00:05:00,
2013-02-02 18:10:00,10.8,-3.6,29.15,SW,226,0.0,0.0,51,0.00,,CLR,0.00,VWS V14.01,2013-02-03 00:10:00,
2013-02-02 18:15:00,10.8,-3.6,29.15,SW,226,0.0,0.0,51,0.00,,CLR,0.00,VWS V14.01,2013-02-03 00:15:00,
2013-02-02 18:20:00,10.9,-3.5,29.15,SW,226,0.0,0.0,51,0.00,,CLR,0.00,VWS V14.01,2013-02-03 00:20:00,
2013-02-02 18:25:00,10.9,-3.5,29.12,SW,226,0.0,0.0,51,0.00,,CLR,0.00,VWS V14.01,2013-02-03 00:25:00,
2013-02-02 18:30:00,10.9,-3.5,29.12,SW,226,0.0,0.0,51,0.00,,CLR,0.00,VWS V14.01,2013-02-03 00:30:00,
2013-02-02 18:35:00,11.1,-3.3,29.12,SW,225,0.0,0.0,51,0.00,,CLR,0.00,VWS V14.01,2013-02-03 00:35:00,
2013-02-02 18:40:00,11.3,-3.1,29.12,SW,226,0.0,0.0,51,0.00,,CLR,0.00,VWS V14.01,2013-02-03 00:40:00,
2013-02-02 18:45:00,11.5,-3.0,29.12,SW,225,0.0,0.0,51,0.00,,CLR,0.00,VWS V14.01,2013-02-03 00:45:00,
2013-02-02 18:50:00,11.7,-2.8,29.12,SW,225,0.0,0.0,51,0.00,,CLR,0.00,VWS V14.01,2013-02-03 00:50:00,
2013-02-02 18:55:00,11.7,-2.8,29.12,SW,226,0.0,0.0,51,0.00,,SCT050,0.00,VWS V14.01,2013-02-03 00:55:00,
2013-02-02 18:59:00,11.8,-2.6,29.12,SW,227,0.0,0.0,51,0.00,,SCT050,0.00,VWS V14.01,2013-02-03 00:59:00,
2013-02-02 19:05:00,11.8,-2.6,29.12,SW,227,0.0,0.0,51,0.00,,SCT050,0.00,VWS V14.01,2013-02-03 01:05:00,
2013-02-02 19:09:00,12.0,-2.5,29.12,SW,227,0.0,0.0,51,0.00,,SCT050,0.00,VWS V14.01,2013-02-03 01:09:00,
2013-02-02 19:15:00,12.0,-2.5,29.12,SW,226,0.0,0.0,51,0.00,,SCT050,0.00,VWS V14.01,2013-02-03 01:15:00,
2013-02-02 19:19:00,12.0,-2.5,29.12,SW,225,0.0,0.0,51,0.00,,SCT050,0.00,VWS V14.01,2013-02-03 01:19:00,
2013-02-02 19:24:00,12.2,-2.3,29.12,SW,226,0.0,0.0,51,0.00,,SCT050,0.00,VWS V14.01,2013-02-03 01:24:00,
2013-02-02 19:29:00,12.2,-2.3,29.12,SW,226,0.0,0.0,51,0.00,,SCT050,0.00,VWS V14.01,2013-02-03 01:29:00,
2013-02-02 19:34:00,12.2,-2.3,29.12,SW,225,0.0,0.0,51,0.00,,SCT050,0.00,VWS V14.01,2013-02-03 01:34:00,
2013-02-02 19:39:00,12.0,-2.5,29.12,SW,225,0.0,0.0,51,0.00,,SCT050,0.00,VWS V14.01,2013-02-03 01:39:00,
2013-02-02 19:44:00,12.0,-2.5,29.12,SW,225,0.0,0.0,51,0.00,,SCT048,0.00,VWS V14.01,2013-02-03 01:44:00,
2013-02-02 19:49:00,12.0,-2.5,29.12,SW,225,0.0,0.0,51,0.00,,SCT048,0.00,VWS V14.01,2013-02-03 01:49:00,
2013-02-02 19:54:00,12.0,-2.5,29.09,SW,225,0.0,0.0,51,0.00,,,0.00,VWS V14.01,2013-02-03 01:54:00,
2013-02-02 19:59:00,12.0,-2.5,29.09,SW,226,0.0,0.0,51,0.00,,,0.00,VWS V14.01,2013-02-03 01:59:00,
2013-02-02 20:04:00,11.8,-2.6,29.09,SW,226,0.0,0.0,51,0.00,,,0.00,VWS V14.01,2013-02-03 02:04:00,
2013-02-02 20:09:00,11.8,-2.6,29.09,SW,227,0.0,0.0,51,0.00,,,0.00,VWS V14.01,2013-02-03 02:09:00,
2013-02-02 20:14:00,11.8,-2.6,29.09,SW,227,0.0,0.0,51,0.00,,,0.00,VWS V14.01,2013-02-03 02:14:00,
2013-02-02 20:19:00,12.0,-2.5,29.09,SW,227,0.0,0.0,51,0.00,,,0.00,VWS V14.01,2013-02-03 02:19:00,
2013-02-02 20:24:00,12.0,-2.5,29.09,SW,226,0.0,0.0,51,0.00,,,0.00,VWS V14.01,2013-02-03 02:24:00,
2013-02-02 20:29:00,12.0,-2.5,29.09,SW,226,0.0,0.0,51,0.00,,,0.00,VWS V14.01,2013-02-03 02:29:00,
2013-02-02 20:34:00,12.0,-2.5,29.09,SW,227,0.0,0.0,51,0.00,,,0.00,VWS V14.01,2013-02-03 02:34:00,
2013-02-02 20:39:00,12.0,-2.5,29.09,SW,227,0.0,0.0,51,0.00,,,0.00,VWS V14.01,2013-02-03 02:39:00,
2013-02-02 20:44:00,12.0,-2.5,29.09,SW,227,0.0,0.0,51,0.00,,,0.00,VWS V14.01,2013-02-03 02:44:00,
2013-02-02 20:49:00,12.0,-2.5,29.09,SW,227,0.0,0.0,51,0.00,,,0.00,VWS V14.01,2013-02-03 02:49:00,
2013-02-02 20:54:00,12.0,-2.5,29.09,SW,227,0.0,0.0,51,0.00,,,0.00,VWS V14.01,2013-02-03 02:54:00,
2013-02-02 20:59:00,12.0,-2.5,29.09,SW,226,0.0,0.0,51,0.00,,,0.00,VWS V14.01,2013-02-03 02:59:00,
2013-02-02 21:04:00,12.2,-2.3,29.09,SW,226,0.0,0.0,51,0.00,,,0.00,VWS V14.01,2013-02-03 03:04:00,
2013-02-02 21:09:00,12.4,-2.1,29.09,SW,226,0.0,0.0,51,0.00,,,0.00,VWS V14.01,2013-02-03 03:09:00,
2013-02-02 21:14:00,12.4,-2.1,29.09,SW,226,0.0,0.0,51,0.00,,,0.00,VWS V14.01,2013-02-03 03:14:00,
2013-02-02 21:19:00,12.2,-2.3,29.09,SE,139,0.0,0.0,51,0.00,,,0.00,VWS V14.01,2013-02-03 03:19:00,
2013-02-02 21:24:00,12.4,-2.1,29.06,SE,139,0.0,0.0,51,0.00,,,0.00,VWS V14.01,2013-02-03 03:24:00,
2013-02-02 21:29:00,12.4,-2.1,29.06,SE,139,0.0,0.0,51,0.00,,,0.00,VWS V14.01,2013-02-03 03:29:00,
2013-02-02 21:34:00,12.4,-2.1,29.06,SE,138,0.0,0.0,51,0.00,,,0.00,VWS V14.01,2013-02-03 03:34:00,
2013-02-02 21:39:00,12.4,-2.1,29.06,SE,136,0.0,0.0,51,0.00,,,0.00,VWS V14.01,2013-02-03 03:39:00,
2013-02-02 21:44:00,12.4,-2.1,29.06,SE,136,0.0,0.0,51,0.00,,,0.00,VWS V14.01,2013-02-03 03:44:00,
2013-02-02 21:49:00,12.6,-2.0,29.06,SE,136,0.0,0.0,51,0.00,,,0.00,VWS V14.01,2013-02-03 03:49:00,
2013-02-02 21:54:00,12.6,-2.0,29.06,SE,136,0.0,0.0,51,0.00,,OVC026,0.00,VWS V14.01,2013-02-03 03:54:00,
2013-02-02 21:59:00,12.7,-1.8,29.06,SE,136,0.0,0.0,51,0.00,,OVC026,0.00,VWS V14.01,2013-02-03 03:59:00,
2013-02-02 22:04:00,12.7,-1.8,29.06,SE,136,0.0,0.0,51,0.00,,OVC026,0.00,VWS V14.01,2013-02-03 04:04:00,
2013-02-02 22:09:00,12.7,-1.8,29.06,SE,135,3.5,3.5,51,0.00,,OVC026,0.00,VWS V14.01,2013-02-03 04:09:00,
2013-02-02 22:14:00,12.7,-1.8,29.06,SE,132,0.0,3.6,51,0.00,,OVC026,0.00,VWS V14.01,2013-02-03 04:14:00,
2013-02-02 22:19:00,12.7,-1.8,29.06,ESE,114,0.0,0.0,51,0.00,,OVC026,0.00,VWS V14.01,2013-02-03 04:19:00,
2013-02-02 22:24:00,12.7,-1.8,29.03,ESE,113,5.2,5.2,51,0.00,,OVC026,0.00,VWS V14.01,2013-02-03 04:24:00,
2013-02-02 22:29:00,12.7,-1.8,29.03,ESE,112,4.7,4.7,51,0.00,,OVC026,0.00,VWS V14.01,2013-02-03 04:29:00,
2013-02-02 22:34:00,12.7,-1.8,29.03,ESE,112,0.0,0.0,51,0.00,,OVC026,0.00,VWS V14.01,2013-02-03 04:34:00,
2013-02-02 22:39:00,12.9,-1.6,29.03,ESE,113,0.0,0.0,51,0.00,,OVC026,0.00,VWS V14.01,2013-02-03 04:39:00,
2013-02-02 22:44:00,12.9,-1.6,29.03,ESE,112,7.6,7.6,51,0.00,,OVC026,0.00,VWS V14.01,2013-02-03 04:44:00,
2013-02-02 22:49:00,12.9,-1.6,29.03,ESE,111,5.8,5.8,51,0.00,,OVC026,0.00,VWS V14.01,2013-02-03 04:49:00,
2013-02-02 22:54:00,13.1,-1.5,29.03,ESE,109,9.6,9.6,51,0.00,,,0.00,VWS V14.01,2013-02-03 04:54:00,
2013-02-02 22:59:00,13.1,-1.5,29.03,ESE,108,8.1,8.1,51,0.00,,,0.00,VWS V14.01,2013-02-03 04:59:00,
2013-02-02 23:00:00,13.1,-1.5,29.03,ESE,110,8.1,8.1,51,0.00,,,0.00,VWS V14.01,2013-02-03 05:00:00,
2013-02-02 23:02:00,13.1,-1.5,29.03,ESE,108,0.0,0.0,51,0.00,,,0.00,VWS V14.01,2013-02-03 05:02:00,
2013-02-02 23:07:00,13.1,-1.5,29.03,ESE,110,9.0,9.0,51,0.00,,,0.00,VWS V14.01,2013-02-03 05:07:00,
2013-02-02 23:12:00,13.3,-1.3,29.00,ESE,109,7.0,7.4,51,0.00,,,0.00,VWS V14.01,2013-02-03 05:12:00,
2013-02-02 23:17:00,13.3,-1.3,29.00,ESE,108,5.2,6.7,51,0.00,,,0.00,VWS V14.01,2013-02-03 05:17:00,
2013-02-02 23:22:00,13.3,-1.3,29.00,ESE,108,3.5,3.5,51,0.00,,,0.00,VWS V14.01,2013-02-03 05:22:00,
2013-02-02 23:27:00,13.5,-1.1,29.03,ESE,110,8.1,8.1,51,0.00,,,0.00,VWS V14.01,2013-02-03 05:27:00,
2013-02-02 23:32:00,13.5,-1.1,29.03,ESE,111,0.0,0.0,51,0.00,,,0.00,VWS V14.01,2013-02-03 05:32:00,
2013-02-02 23:37:00,13.6,-0.9,29.03,ESE,110,0.0,0.0,51,0.00,,,0.00,VWS V14.01,2013-02-03 05:37:00,
2013-02-02 23:42:00,13.6,-0.9,29.00,ESE,110,7.0,7.0,51,0.00,,,0.00,VWS V14.01,2013-02-03 05:42:00,
2013-02-02 23:47:00,13.6,-0.9,29.00,ESE,110,0.0,0.0,51,0.00,,,0.00,VWS V14.01,2013-02-03 05:47:00,
2013-02-02 23:52:00,13.6,-0.9,29.00,ESE,110,0.0,0.0,51,0.00,,BKN013,0.00,VWS V14.01,2013-02-03 05:52:00,
2013-02-02 23:57:00,13.8,-0.8,29.00,ESE,110,5.2,5.2,51,0.00,,BKN013,0.00,VWS V14.01,2013-02-03 05:57:00,